| time (UTC) | temp F | wind direction | speed MPH | gust MPH | rain 1hr in | rain 24hr in | rain mn in | humidity % | barometer mb |
| 20260906091216 | 74 | 344 | 0.0 | 1.0 | 0.00 | 0.06 | 0.00 | 96 | 1008.6 |
| 20260906090016 | 74 | 0.0 | 0.0 | 0.00 | 0.06 | 0.00 | 96 | 1008.3 | |
| 20260906084816 | 74 | 0.0 | 0.0 | 0.00 | 0.06 | 0.00 | 96 | 1008.3 | |
| 20260906083636 | 74 | 0.0 | 0.0 | 0.00 | 0.06 | 0.00 | 95 | 1008.3 | |
| 20260906082416 | 74 | 0.0 | 0.0 | 0.00 | 0.06 | 0.00 | 95 | 1008.1 | |
| 20260906081216 | 74 | 0.0 | 0.0 | 0.00 | 0.06 | 0.00 | 95 | 1008.2 | |
| 20260906080016 | 74 | 345 | 0.0 | 1.0 | 0.00 | 0.06 | 0.00 | 95 | 1008.1 |
| 20260906074816 | 74 | 0.0 | 1.0 | 0.00 | 0.06 | 0.00 | 95 | 1008.1 | |
| 20260906073616 | 74 | 0.0 | 0.0 | 0.00 | 0.06 | 0.00 | 95 | 1008.2 | |
| 20260906072436 | 74 | 0.0 | 0.0 | 0.00 | 0.06 | 0.00 | 95 | 1008.3 | |
| 20260906071216 | 74 | 0.0 | 0.0 | 0.00 | 0.06 | 0.00 | 95 | 1008.3 | |
| 20260906070016 | 74 | 345 | 0.0 | 1.0 | 0.00 | 0.06 | 0.00 | 95 | 1008.3 |
| 20260906064815 | 74 | 0.0 | 0.0 | 0.00 | 0.06 | 0.00 | 95 | 1008.4 | |
| 20260906063616 | 74 | 344 | 0.0 | 1.0 | 0.00 | 0.06 | 0.00 | 95 | 1008.3 |
| 20260906062436 | 75 | 345 | 0.0 | 1.0 | 0.00 | 0.06 | 0.00 | 95 | 1008.5 |
| 20260906061216 | 75 | 345 | 0.0 | 1.0 | 0.00 | 0.06 | 0.00 | 95 | 1008.6 |
| 20260906060035 | 74 | 316 | 0.0 | 1.0 | 0.00 | 0.06 | 0.00 | 95 | 1008.7 |
| 20260906054815 | 75 | 316 | 0.0 | 1.0 | 0.00 | 0.06 | 0.00 | 94 | 1008.8 |
| 20260906053616 | 75 | 316 | 0.0 | 1.0 | 0.00 | 0.06 | 0.00 | 94 | 1008.8 |
| 20260906052416 | 75 | 316 | 0.0 | 2.0 | 0.00 | 0.06 | 0.00 | 94 | 1008.9 |
| 20260906051215 | 75 | 292 | 0.0 | 2.0 | 0.00 | 0.06 | 0.00 | 94 | 1008.9 |
| 20260906050036 | 75 | 323 | 0.0 | 2.0 | 0.00 | 0.06 | 0.00 | 95 | 1009.0 |
| 20260906044815 | 75 | 322 | 1.0 | 2.0 | 0.00 | 0.06 | 0.00 | 94 | 1009.0 |
| 20260906043615 | 75 | 22 | 1.0 | 4.0 | 0.02 | 0.06 | 0.00 | 94 | 1008.8 |
| 20260906042415 | 75 | 64 | 0.0 | 1.0 | 0.06 | 0.06 | 0.00 | 93 | 1008.9 |
| 20260906041215 | 75 | 4 | 0.0 | 2.0 | 0.06 | 0.06 | 0.00 | 92 | 1008.9 |
| 20260906040015 | 75 | 302 | 0.0 | 2.0 | 0.06 | 0.06 | 0.06 | 92 | 1009.0 |
| 20260906034816 | 76 | 297 | 1.0 | 4.0 | 0.06 | 0.06 | 0.06 | 90 | 1009.3 |
| 20260906033616 | 78 | 305 | 2.0 | 5.0 | 0.04 | 0.04 | 0.04 | 83 | 1009.3 |
| 20260906032416 | 80 | 130 | 3.0 | 6.0 | 0.00 | 0.00 | 0.00 | 76 | 1009.2 |
| 20260906031216 | 80 | 54 | 0.0 | 2.0 | 0.00 | 0.00 | 0.00 | 77 | 1009.6 |
| 20260906030016 | 80 | 36 | 1.0 | 3.0 | 0.00 | 0.00 | 0.00 | 77 | 1009.4 |
| 20260906024836 | 80 | 14 | 1.0 | 2.0 | 0.00 | 0.00 | 0.00 | 77 | 1009.4 |
| 20260906023616 | 80 | 91 | 1.0 | 4.0 | 0.00 | 0.00 | 0.00 | 77 | 1009.2 |
| 20260906022416 | 80 | 0.0 | 0.0 | 0.00 | 0.00 | 0.00 | 76 | 1009.4 | |
| 20260906021216 | 81 | 35 | 0.0 | 1.0 | 0.00 | 0.00 | 0.00 | 75 | 1009.4 |
| 20260906020016 | 81 | 50 | 1.0 | 2.0 | 0.00 | 0.00 | 0.00 | 74 | 1009.2 |
| 20260906014856 | 81 | 288 | 0.0 | 1.0 | 0.00 | 0.00 | 0.00 | 74 | 1009.2 |
| 20260906013616 | 81 | 0.0 | 0.0 | 0.00 | 0.00 | 0.00 | 73 | 1009.1 | |
| 20260906012416 | 81 | 0.0 | 0.0 | 0.00 | 0.00 | 0.00 | 72 | 1008.9 | |
| 20260906011216 | 81 | 312 | 0.0 | 1.0 | 0.00 | 0.00 | 0.00 | 72 | 1008.8 |
| 20260906010017 | 82 | 323 | 1.0 | 4.0 | 0.00 | 0.00 | 0.00 | 72 | 1008.6 |
| 20260906004816 | 82 | 77 | 5.0 | 7.0 | 0.00 | 0.00 | 0.00 | 71 | 1008.3 |
| 20260906003636 | 83 | 63 | 1.0 | 2.0 | 0.00 | 0.00 | 0.00 | 70 | 1008.5 |
| 20260906002415 | 84 | 298 | 0.0 | 4.0 | 0.00 | 0.00 | 0.00 | 69 | 1008.2 |
| 20260906001236 | 84 | 18 | 0.0 | 3.0 | 0.00 | 0.00 | 0.00 | 65 | 1008.1 |
| 20260906000016 | 84 | 21 | 1.0 | 4.0 | 0.00 | 0.00 | 0.00 | 65 | 1008.2 |
| 20260905234816 | 85 | 289 | 1.0 | 2.0 | 0.00 | 0.00 | 0.00 | 64 | 1008.2 |
| 20260905233656 | 85 | 78 | 1.0 | 4.0 | 0.00 | 0.00 | 0.00 | 63 | 1008.1 |
| 20260905232455 | 86 | 354 | 0.0 | 2.0 | 0.00 | 0.00 | 0.00 | 62 | 1008.0 |
| 20260905231215 | 86 | 18 | 0.0 | 2.0 | 0.00 | 0.00 | 0.00 | 60 | 1008.2 |
| 20260905230015 | 87 | 109 | 1.0 | 4.0 | 0.00 | 0.00 | 0.00 | 60 | 1008.1 |
| 20260905224817 | 87 | 75 | 6.0 | 8.0 | 0.00 | 0.00 | 0.00 | 58 | 1008.1 |
| 20260905223615 | 88 | 71 | 5.0 | 10.0 | 0.00 | 0.00 | 0.00 | 59 | 1008.1 |
| 20260905222415 | 89 | 75 | 7.0 | 14.0 | 0.00 | 0.00 | 0.00 | 57 | 1007.4 |
| 20260905221215 | 93 | 80 | 8.0 | 18.0 | 0.00 | 0.00 | 0.00 | 51 | 1007.6 |
| 20260905220015 | 99 | 321 | 2.0 | 2.0 | 0.00 | 0.00 | 0.00 | 45 | 1007.3 |
| 20260905214815 | 99 | 284 | 0.0 | 2.0 | 0.00 | 0.00 | 0.00 | 42 | 1007.1 |
| 20260905213615 | 99 | 157 | 0.0 | 2.0 | 0.00 | 0.00 | 0.00 | 42 | 1007.1 |
| 20260905212415 | 99 | 172 | 2.0 | 7.0 | 0.00 | 0.00 | 0.00 | 43 | 1007.2 |
| 20260905211215 | 100 | 283 | 1.0 | 3.0 | 0.00 | 0.00 | 0.00 | 44 | 1007.4 |
| 20260905210055 | 99 | 314 | 1.0 | 2.0 | 0.00 | 0.00 | 0.00 | 45 | 1007.6 |
| 20260905204815 | 99 | 84 | 1.0 | 2.0 | 0.00 | 0.00 | 0.00 | 41 | 1007.6 |
| 20260905203615 | 98 | 217 | 1.0 | 5.0 | 0.00 | 0.00 | 0.00 | 42 | 1007.4 |
| 20260905202415 | 98 | 271 | 0.0 | 2.0 | 0.00 | 0.00 | 0.00 | 44 | 1007.5 |
| 20260905201215 | 98 | 62 | 3.0 | 6.0 | 0.00 | 0.00 | 0.00 | 44 | 1007.6 |
| 20260905200015 | 97 | 125 | 1.0 | 3.0 | 0.00 | 0.00 | 0.00 | 45 | 1007.9 |
| 20260905194815 | 97 | 79 | 3.0 | 8.0 | 0.00 | 0.00 | 0.00 | 46 | 1008.0 |
| 20260905193615 | 97 | 87 | 5.0 | 9.0 | 0.00 | 0.00 | 0.00 | 45 | 1008.0 |
| 20260905192415 | 98 | 182 | 1.0 | 4.0 | 0.00 | 0.00 | 0.00 | 47 | 1008.1 |
| 20260905191215 | 98 | 256 | 2.0 | 4.0 | 0.00 | 0.00 | 0.00 | 46 | 1008.3 |
| 20260905190015 | 97 | 30 | 1.0 | 4.0 | 0.00 | 0.00 | 0.00 | 48 | 1008.5 |
| 20260905184835 | 97 | 344 | 2.0 | 5.0 | 0.00 | 0.00 | 0.00 | 48 | 1008.8 |
| 20260905183615 | 96 | 64 | 3.0 | 5.0 | 0.00 | 0.00 | 0.00 | 49 | 1009.0 |
| 20260905182415 | 96 | 83 | 3.0 | 6.0 | 0.00 | 0.00 | 0.00 | 49 | 1009.0 |
| 20260905181235 | 95 | 1 | 2.0 | 7.0 | 0.00 | 0.00 | 0.00 | 50 | 1009.2 |
| 20260905180015 | 95 | 95 | 2.0 | 7.0 | 0.00 | 0.00 | 0.00 | 53 | 1009.3 |
| 20260905174855 | 95 | 181 | 3.0 | 6.0 | 0.00 | 0.00 | 0.00 | 54 | 1009.5 |
| 20260905173615 | 94 | 123 | 2.0 | 5.0 | 0.00 | 0.00 | 0.00 | 55 | 1009.7 |
| 20260905172415 | 93 | 176 | 2.0 | 5.0 | 0.00 | 0.00 | 0.00 | 57 | 1009.7 |
| 20260905171215 | 93 | 90 | 4.0 | 7.0 | 0.00 | 0.00 | 0.00 | 57 | 1009.8 |
| 20260905170035 | 94 | 74 | 3.0 | 8.0 | 0.00 | 0.00 | 0.00 | 56 | 1010.0 |
| 20260905164837 | 94 | 140 | 1.0 | 4.0 | 0.00 | 0.00 | 0.00 | 56 | 1010.2 |
| 20260905163616 | 94 | 189 | 1.0 | 2.0 | 0.00 | 0.00 | 0.00 | 57 | 1010.4 |
| 20260905162417 | 94 | 58 | 1.0 | 4.0 | 0.00 | 0.00 | 0.00 | 56 | 1010.9 |
| 20260905161216 | 93 | 6 | 0.0 | 2.0 | 0.00 | 0.00 | 0.00 | 58 | 1010.9 |
| 20260905160017 | 92 | 44 | 1.0 | 5.0 | 0.00 | 0.00 | 0.00 | 60 | 1011.1 |
| 20260905154816 | 92 | 253 | 2.0 | 4.0 | 0.00 | 0.00 | 0.00 | 61 | 1011.2 |
| 20260905153616 | 91 | 52 | 1.0 | 2.0 | 0.00 | 0.00 | 0.00 | 63 | 1011.3 |
| 20260905152416 | 91 | 42 | 1.0 | 4.0 | 0.00 | 0.00 | 0.00 | 62 | 1011.3 |
| 20260905151216 | 90 | 297 | 1.0 | 4.0 | 0.00 | 0.00 | 0.00 | 66 | 1011.4 |
| 20260905150016 | 89 | 305 | 2.0 | 4.0 | 0.00 | 0.00 | 0.00 | 68 | 1011.5 |
| 20260905144816 | 88 | 290 | 1.0 | 5.0 | 0.00 | 0.00 | 0.00 | 69 | 1011.7 |
| 20260905143636 | 88 | 310 | 1.0 | 4.0 | 0.00 | 0.00 | 0.00 | 72 | 1011.8 |
| 20260905142416 | 87 | 349 | 1.0 | 4.0 | 0.00 | 0.00 | 0.00 | 72 | 1011.8 |
| 20260905141216 | 86 | 306 | 1.0 | 3.0 | 0.00 | 0.00 | 0.00 | 75 | 1011.9 |
| 20260905140016 | 85 | 312 | 1.0 | 5.0 | 0.00 | 0.00 | 0.00 | 77 | 1011.9 |
| 20260905134816 | 84 | 347 | 1.0 | 2.0 | 0.00 | 0.00 | 0.00 | 79 | 1012.0 |
| 20260905133616 | 83 | 269 | 1.0 | 2.0 | 0.00 | 0.00 | 0.00 | 82 | 1011.9 |
| 20260905132416 | 81 | 307 | 1.0 | 3.0 | 0.00 | 0.00 | 0.00 | 85 | 1012.0 |
| 20260905131216 | 79 | 214 | 0.0 | 2.0 | 0.00 | 0.00 | 0.00 | 87 | 1012.1 |
| 20260905130036 | 78 | 175 | 0.0 | 2.0 | 0.00 | 0.00 | 0.00 | 90 | 1012.2 |
| 20260905124856 | 77 | 165 | 1.0 | 2.0 | 0.00 | 0.00 | 0.00 | 92 | 1012.2 |
| 20260905123616 | 75 | 166 | 1.0 | 3.0 | 0.00 | 0.00 | 0.00 | 94 | 1011.9 |
| 20260905122416 | 75 | 170 | 1.0 | 4.0 | 0.00 | 0.00 | 0.00 | 94 | 1011.9 |
| 20260905121216 | 75 | 189 | 1.0 | 2.0 | 0.00 | 0.00 | 0.00 | 94 | 1011.9 |
| 20260905120016 | 75 | 168 | 1.0 | 2.0 | 0.00 | 0.00 | 0.00 | 94 | 1011.8 |
| 20260905114816 | 74 | 0.0 | 0.0 | 0.00 | 0.00 | 0.00 | 96 | 1011.7 | |
| 20260905113636 | 74 | 0.0 | 0.0 | 0.00 | 0.00 | 0.00 | 96 | 1011.7 | |
| 20260905112416 | 74 | 0.0 | 0.0 | 0.00 | 0.00 | 0.00 | 95 | 1011.6 | |
| 20260905111216 | 74 | 162 | 0.0 | 1.0 | 0.00 | 0.00 | 0.00 | 96 | 1011.6 |
| 20260905110016 | 74 | 162 | 0.0 | 2.0 | 0.00 | 0.00 | 0.00 | 95 | 1011.5 |
| 20260905104836 | 74 | 162 | 0.0 | 1.0 | 0.00 | 0.00 | 0.00 | 95 | 1011.3 |
| 20260905103616 | 74 | 162 | 0.0 | 1.0 | 0.00 | 0.00 | 0.00 | 95 | 1011.2 |
| 20260905102416 | 74 | 0.0 | 0.0 | 0.00 | 0.00 | 0.00 | 95 | 1011.2 | |
| 20260905101216 | 74 | 0.0 | 0.0 | 0.00 | 0.00 | 0.00 | 95 | 1011.1 | |
| 20260905100016 | 74 | 0.0 | 0.0 | 0.00 | 0.00 | 0.00 | 95 | 1011.0 | |
| 20260905094816 | 74 | 162 | 0.0 | 1.0 | 0.00 | 0.00 | 0.00 | 95 | 1011.0 |
| 20260905093616 | 74 | 0.0 | 0.0 | 0.00 | 0.00 | 0.00 | 94 | 1011.0 | |
| 20260905092416 | 74 | 0.0 | 0.0 | 0.00 | 0.00 | 0.00 | 94 | 1011.0 |